Wind_Speed
23 22 21 20 20 19 19 18 18 17 16 14 15 14 13 13 14 14 15 17 17 18 19 19 20 21 21 22 23 24 23 20 22 22 22 22 20 24 22 21 24 21 24 23 20
27 27 26 24 23 22 21 19 18 17 18 19 18 19 19 20 20 20 21 22 23 23 24 24 25 26 26 27 27 28 25 24 23 23 23 24 23 24 24 23 21 24 25 25 22
32 31 29 27 26 25 23 22 21 20 20 20 21 23 23 24 25 26 27 27 28 28 29 31 30 30 30 29 28 26 26 26 23 25 23 26 25 25 25 21 28 26 27 26 26
36 35 34 31 30 29 27 26 26 26 26 26 26 26 27 28 30 33 31 33 34 34 34 33 32 30 28 28 26 26 27 28 26 28 26 27 28 28 28 24 28 31 28 26 26
40 39 38 36 35 34 32 31 31 31 31 32 32 32 33 33 35 39 36 37 36 34 32 31 31 32 31 29 29 28 28 28 30 30 31 32 29 36 24 31 30 31 29 29 29
40 39 40 40 39 38 37 36 36 37 37 38 38 38 36 35 37 38 38 35 32 32 34 35 35 34 30 30 34 33 31 30 29 34 37 36 30 38 30 34 30 33 31 31 30
42 43 42 42 41 41 41 42 42 41 41 41 39 38 34 32 32 33 34 33 35 37 38 38 38 35 35 34 37 36 37 34 31 38 40 39 33 36 38 37 34 32 33 31 31
42 42 42 43 44 44 44 43 42 40 39 39 39 38 36 34 35 37 38 39 41 41 40 38 39 39 38 39 41 40 41 40 35 41 42 45 42 37 38 37 36 32 30 36 35
44 44 44 44 44 43 43 42 42 41 41 41 41 42 41 39 39 40 40 40 41 40 40 41 43 44 41 43 45 43 47 45 46 42 42 46 50 40 37 37 38 32 35 37 37
44 44 44 44 44 43 42 42 43 42 42 41 42 41 42 39 40 40 41 41 42 43 45 46 47 47 42 44 46 47 47 48 47 45 47 44 47 51 44 36 37 38 36 38 45
47 47 47 45 46 46 45 44 45 46 43 43 45 44 47 44 44 43 43 43 44 43 42 45 43 44 45 46 48 52 53 54 52 49 50 50 45 48 50 49 44 43 43 44 42
49 49 49 49 49 48 48 47 46 47 46 42 43 47 46 45 46 43 41 43 43 44 46 49 46 48 53 51 51 53 54 54 55 55 55 54 55 49 48 50 50 49 44 44 43
56 53 52 52 51 50 49 50 50 52 54 49 49 50 49 48 47 48 45 47 49 49 49 53 48 51 53 52 48 48 48 49 53 55 54 57 57 55 51 50 56 54 53 48 45
58 58 56 57 55 56 56 56 55 55 53 54 53 52 49 46 44 43 41 42 40 42 41 44 42 43 44 46 47 47 45 49 52 55 59 60 62 59 59 62 62 55 51 45 40
55 56 57 55 55 57 55 51 49 49 53 53 55 52 47 43 42 42 43 43 42 39 40 43 43 44 42 43 45 47 46 48 47 50 55 56 59 63 59 62 60 53 48 43 37
44 46 47 48 49 51 50 49 49 49 57 53 52 49 48 45 45 45 44 45 45 45 47 43 46 42 44 44 44 48 49 51 52 54 56 55 58 60 60 57 52 49 51 49 48
39 42 45 43 45 48 49 49 49 53 54 53 49 47 48 49 48 47 45 45 45 46 49 48 44 47 48 47 46 47 51 53 54 54 55 56 56 58 52 54 54 53 53 55 55
47 48 51 53 53 50 52 51 53 55 52 50 46 45 47 50 49 49 47 43 44 47 50 50 50 49 51 51 50 51 49 49 53 54 55 54 58 60 59 62 63 62 63 63 62
47 50 53 50 54 51 50 52 55 51 48 45 44 47 49 48 50 51 52 49 49 50 51 54 56 53 53 51 50 50 48 48 51 53 57 55 54 53 61 64 65 65 66 67 66
54 56 60 60 58 56 50 52 50 44 50 50 49 50 49 49 52 51 50 54 56 52 48 48 49 47 45 48 48 47 49 51 52 53 58 58 56 55 59 64 65 67 64 62 59
57 59 59 62 60 57 54 50 46 46 48 48 50 52 50 51 50 53 56 55 56 56 49 46 47 49 50 48 49 50 50 50 52 55 60 61 58 54 58 60 63 57 53 61 65
60 59 57 58 60 59 55 49 52 52 55 56 57 57 57 48 50 50 50 47 53 50 48 50 54 54 51 49 50 51 50 51 55 58 59 59 57 41 47 52 58 61 63 66 70
63 60 60 58 59 56 57 57 56 59 58 56 54 53 51 50 52 51 50 50 49 49 51 52 57 58 59 54 53 53 53 53 55 58 59 59 58 52 56 57 61 65 68 71 72
60 62 64 64 59 57 56 57 59 56 59 58 54 51 52 49 49 52 50 51 52 51 52 54 55 59 60 57 57 59 58 57 59 61 62 64 63 59 61 64 68 73 71 71 71
59 62 61 61 59 56 58 60 59 60 59 56 54 53 51 53 53 52 52 53 54 53 54 57 59 59 60 61 60 62 63 62 62 63 67 67 67 66 66 70 72 73 75 76 77
60 64 65 65 59 59 59 59 61 60 61 57 53 54 54 53 52 54 54 54 55 59 60 61 63 62 63 63 64 66 65 64 65 66 69 71 74 70 75 76 78 80 82 81 83
69 70 60 62 65 67 65 58 53 54 56 55 55 55 56 57 57 56 57 59 61 61 62 63 64 66 68 66 70 71 65 68 70 68 71 76 76 75 76 78 80 81 80 81 82
Wind_Direction
251 255 259 264 270 274 275 273 270 262 260 257 254 257 267 272 276 281 286 286 288 289 292 295 294 295 296 295 292 290 288 292 290 291 292 298 299 300 298 297 299 298 298 300 297
254 258 262 266 270 272 271 267 266 262 258 255 256 259 266 274 279 282 283 285 287 289 289 289 290 291 290 287 285 286 287 286 287 289 294 299 302 296 297 299 291 300 301 304 305
255 258 261 263 266 268 266 263 262 262 260 259 260 264 267 271 275 278 280 281 282 282 284 286 287 287 287 288 285 285 287 286 285 288 294 295 294 293 292 297 296 295 299 306 306
255 257 259 261 263 263 260 259 261 262 265 265 266 268 271 273 277 276 278 280 282 284 285 284 285 283 285 287 285 289 286 283 282 287 289 290 291 285 288 295 287 289 297 300 298
255 257 260 261 261 261 260 261 262 264 266 268 269 271 272 273 275 277 279 281 283 284 284 286 288 289 289 288 287 287 281 280 280 283 286 287 285 281 293 282 283 285 290 294 297
255 256 257 259 260 261 261 262 265 267 270 272 274 275 273 272 273 274 277 277 279 283 285 287 288 287 286 288 290 290 286 280 278 283 283 283 281 286 285 282 285 285 287 289 291
254 254 256 256 258 259 260 263 267 268 270 272 273 273 273 274 273 273 274 276 279 283 286 288 286 286 289 290 290 290 286 286 287 282 283 286 286 284 284 282 284 284 288 284 281
254 255 257 258 259 261 263 264 266 268 269 271 272 273 274 273 276 277 277 278 280 282 282 283 283 286 288 289 289 287 288 286 279 282 288 289 286 283 281 288 293 293 283 278 279
256 257 258 259 261 263 265 266 267 268 269 271 273 275 275 275 276 275 275 277 279 281 282 283 283 285 287 288 288 289 286 284 288 286 287 288 289 287 283 290 292 293 287 283 282
258 258 260 261 262 263 265 266 267 268 269 271 272 274 276 276 275 274 275 277 278 280 282 282 282 283 284 283 284 288 290 290 288 288 291 288 289 292 291 285 284 284 285 284 282
261 261 261 263 266 267 266 267 268 269 269 272 275 274 277 276 276 276 278 279 279 280 282 280 284 286 282 282 288 289 292 292 289 284 282 281 283 286 291 291 291 289 288 284 288
261 262 263 263 264 266 268 269 270 273 274 274 274 276 276 279 278 278 279 278 279 280 280 281 282 282 283 283 281 284 287 289 288 289 289 289 286 287 286 292 291 286 283 285 289
262 261 263 265 266 269 271 273 273 274 276 275 274 276 280 281 284 284 281 280 280 280 279 280 279 279 279 279 280 281 283 283 285 285 285 287 288 289 291 288 286 288 289 288 281
261 263 265 265 267 269 270 272 272 274 277 278 278 279 279 281 284 287 286 283 278 279 278 282 281 279 277 282 285 285 285 286 288 288 288 287 287 290 293 293 290 295 300 304 304
261 263 264 266 264 266 271 273 272 274 275 279 280 283 287 288 289 289 284 282 281 279 279 280 280 280 284 284 283 287 288 287 287 287 287 291 291 292 293 292 296 304 306 303 297
260 264 266 266 266 268 269 271 274 274 274 274 278 282 287 287 285 283 283 284 284 285 284 279 281 283 278 279 285 287 288 289 289 288 286 287 286 290 292 295 301 301 302 300 299
251 245 258 267 268 263 266 269 271 272 274 275 279 283 282 280 280 282 282 283 281 280 278 279 281 281 284 287 285 287 288 290 290 288 288 288 289 286 292 293 296 296 295 297 295
251 254 263 270 269 261 260 264 268 270 272 276 278 277 276 277 280 279 278 278 279 277 279 281 280 281 285 287 289 288 287 284 284 284 283 285 287 286 288 292 291 291 290 290 291
244 251 251 251 255 256 258 259 265 267 271 275 275 273 274 275 277 279 282 279 283 287 288 287 286 289 291 291 291 292 290 288 285 284 283 285 284 283 283 287 288 288 289 289 287
252 249 249 254 257 258 260 261 266 273 274 274 272 271 272 276 275 276 277 278 283 287 287 287 288 288 285 287 288 287 287 289 290 288 286 287 286 289 288 286 285 287 288 285 282
247 246 249 254 257 254 256 259 266 275 277 272 272 274 276 284 285 286 287 289 288 290 290 290 284 287 289 291 284 285 286 285 282 281 283 286 288 291 287 287 285 281 278 281 280
238 243 246 251 253 253 252 262 268 276 280 281 283 286 289 289 284 284 287 281 288 290 288 284 284 289 291 289 286 283 282 281 281 284 280 279 281 276 271 272 272 270 271 272 274
246 249 250 259 263 267 268 275 280 279 281 283 283 284 284 283 282 284 282 279 281 279 281 284 283 287 291 293 285 279 280 282 282 280 279 279 281 279 279 272 266 269 271 272 275
272 273 272 273 279 279 276 275 275 276 278 282 283 281 281 277 276 278 277 277 275 276 278 277 279 284 285 288 285 283 285 286 284 279 281 278 281 278 276 274 274 277 276 275 275
267 270 269 276 275 272 274 277 278 280 281 282 283 280 276 274 274 275 273 273 278 277 276 276 279 277 279 282 279 278 279 282 276 279 279 284 278 279 278 275 275 276 277 278 277
258 264 266 271 268 269 273 277 279 281 280 280 277 275 273 273 272 272 275 275 273 276 277 276 276 276 277 278 277 277 281 282 281 282 282 283 282 283 280 279 280 280 279 279 278
259 258 260 268 273 274 277 279 276 276 278 279 276 272 272 272 272 271 268 271 273 273 274 275 276 277 276 277 277 277 285 282 282 284 286 284 285 284 284 284 284 284 283 282 280
Height
5856 5857 5858 5859 5860 5861 5861 5861 5862 5862 5863 5863 5864 5865 5865 5865 5865 5865 5865 5865 5865 5864 5864 5864 5863 5863 5863 5862 5861 5859 5859 5859 5856 5856 5855 5854 5854 5851 5852 5851 5849 5850 5848 5847 5848
5852 5853 5854 5855 5856 5856 5857 5857 5858 5858 5859 5860 5861 5862 5862 5862 5862 5862 5862 5861 5860 5860 5860 5859 5859 5858 5858 5858 5857 5855 5856 5854 5853 5852 5851 5850 5850 5848 5848 5848 5846 5845 5845 5844 5845
5847 5848 5849 5850 5851 5852 5853 5853 5854 5854 5855 5856 5857 5857 5857 5857 5857 5857 5857 5856 5856 5855 5855 5854 5854 5853 5853 5852 5851 5852 5851 5849 5849 5848 5848 5846 5846 5844 5843 5845 5840 5841 5840 5839 5838
5841 5843 5844 5845 5846 5847 5848 5849 5849 5850 5851 5851 5852 5853 5853 5853 5853 5850 5852 5851 5850 5850 5849 5848 5848 5847 5847 5846 5846 5846 5846 5844 5844 5842 5843 5842 5841 5839 5839 5841 5836 5834 5835 5835 5834
5834 5836 5838 5839 5840 5841 5842 5843 5844 5844 5845 5845 5846 5847 5848 5849 5847 5843 5845 5845 5844 5843 5843 5842 5842 5841 5842 5841 5840 5840 5839 5838 5837 5837 5836 5835 5836 5829 5838 5831 5831 5830 5831 5829 5829
5827 5829 5830 5832 5833 5834 5835 5836 5836 5837 5838 5838 5839 5839 5840 5842 5840 5837 5836 5837 5837 5837 5836 5836 5835 5834 5836 5835 5833 5834 5833 5833 5833 5830 5826 5827 5831 5824 5830 5824 5827 5825 5826 5824 5824
5818 5820 5822 5823 5824 5826 5827 5828 5828 5829 5829 5830 5830 5830 5832 5833 5832 5830 5830 5830 5830 5829 5829 5829 5827 5827 5828 5829 5826 5826 5824 5826 5828 5821 5818 5819 5825 5822 5818 5817 5819 5820 5818 5818 5816
5810 5811 5812 5814 5815 5817 5818 5819 5820 5821 5821 5821 5821 5822 5824 5825 5825 5825 5824 5823 5822 5822 5821 5820 5819 5819 5820 5820 5818 5817 5816 5815 5820 5814 5813 5809 5811 5814 5812 5812 5812 5813 5813 5808 5807
5801 5803 5804 5805 5806 5808 5809 5810 5811 5812 5812 5812 5813 5813 5815 5818 5817 5816 5815 5816 5814 5813 5813 5813 5811 5810 5813 5810 5807 5809 5804 5805 5804 5808 5806 5800 5795 5804 5806 5806 5804 5807 5803 5801 5799
5791 5793 5795 5796 5797 5798 5800 5801 5801 5803 5803 5804 5803 5806 5805 5809 5808 5808 5807 5807 5807 5805 5805 5804 5803 5802 5804 5800 5797 5796 5796 5793 5792 5794 5790 5791 5788 5786 5793 5799 5797 5796 5797 5793 5785
5782 5784 5785 5787 5788 5789 5790 5791 5793 5793 5795 5796 5795 5796 5793 5798 5798 5800 5800 5799 5797 5797 5796 5793 5795 5793 5793 5791 5790 5786 5787 5786 5786 5784 5780 5778 5783 5782 5781 5781 5786 5786 5783 5780 5782
5772 5773 5775 5776 5776 5778 5779 5780 5781 5782 5784 5787 5787 5783 5784 5786 5786 5789 5791 5790 5789 5788 5786 5784 5785 5785 5780 5782 5780 5778 5776 5775 5773 5772 5771 5770 5767 5772 5774 5772 5769 5770 5773 5771 5771
5761 5762 5764 5765 5766 5768 5769 5770 5770 5770 5770 5776 5776 5774 5775 5776 5776 5776 5779 5778 5776 5777 5776 5773 5775 5770 5770 5769 5770 5770 5767 5765 5763 5760 5760 5755 5755 5756 5760 5759 5757 5759 5759 5760 5761
5749 5751 5753 5754 5759 5757 5758 5759 5759 5760 5760 5759 5761 5765 5766 5765 5766 5765 5764 5764 5763 5763 5763 5763 5765 5764 5762 5760 5758 5758 5758 5756 5753 5752 5751 5747 5744 5747 5746 5741 5741 5743 5742 5741 5742
5736 5738 5739 5742 5744 5746 5748 5748 5748 5750 5749 5748 5747 5749 5752 5756 5756 5755 5754 5753 5753 5753 5754 5753 5752 5752 5754 5753 5748 5747 5746 5746 5744 5742 5738 5741 5738 5734 5730 5727 5729 5730 5729 5731 5733
5725 5726 5728 5730 5732 5734 5735 5736 5739 5740 5735 5739 5738 5740 5742 5742 5743 5743 5745 5744 5743 5744 5743 5742 5741 5742 5742 5742 5741 5739 5737 5734 5730 5730 5730 5729 5728 5727 5724 5722 5720 5720 5719 5719 5719
5716 5717 5718 5720 5723 5724 5725 5727 5728 5726 5727 5728 5731 5732 5731 5730 5730 5731 5732 5732 5732 5731 5730 5732 5735 5733 5730 5731 5730 5730 5727 5723 5721 5720 5719 5718 5719 5718 5716 5713 5713 5711 5709 5708 5707
5706 5707 5708 5710 5711 5712 5714 5716 5715 5714 5716 5720 5722 5720 5719 5719 5719 5718 5720 5721 5721 5720 5719 5719 5722 5721 5720 5718 5718 5717 5717 5716 5709 5710 5709 5712 5710 5709 5707 5702 5700 5700 5698 5695 5695
5695 5696 5696 5698 5698 5700 5702 5703 5704 5705 5708 5708 5709 5708 5707 5708 5707 5707 5708 5710 5708 5708 5710 5707 5707 5708 5709 5707 5706 5704 5702 5700 5695 5697 5693 5700 5702 5703 5697 5687 5687 5686 5684 5681 5680
5681 5683 5684 5684 5685 5687 5689 5690 5693 5696 5694 5696 5695 5697 5696 5695 5696 5695 5695 5695 5695 5697 5695 5695 5694 5695 5694 5693 5690 5690 5690 5687 5683 5678 5675 5683 5685 5689 5680 5673 5672 5670 5665 5663 5664
5665 5667 5671 5671 5672 5673 5676 5679 5681 5682 5682 5684 5683 5684 5685 5683 5683 5683 5681 5679 5679 5679 5680 5679 5677 5683 5683 5684 5678 5676 5676 5675 5670 5667 5660 5660 5668 5675 5662 5657 5653 5651 5650 5647 5645
5648 5653 5656 5655 5659 5662 5666 5667 5668 5670 5668 5669 5668 5669 5669 5669 5668 5670 5670 5666 5665 5667 5666 5663 5658 5664 5670 5672 5665 5659 5660 5659 5652 5651 5646 5642 5645 5661 5652 5644 5638 5635 5633 5632 5629
5634 5637 5640 5639 5642 5647 5649 5651 5652 5655 5655 5654 5654 5655 5656 5656 5652 5656 5656 5653 5654 5653 5651 5649 5644 5645 5650 5658 5649 5643 5645 5646 5641 5634 5629 5628 5627 5637 5635 5625 5621 5619 5620 5616 5611
5619 5620 5625 5627 5630 5634 5636 5637 5639 5641 5641 5640 5641 5641 5641 5642 5641 5640 5643 5642 5639 5640 5638 5635 5635 5632 5631 5636 5634 5625 5627 5629 5622 5612 5614 5611 5612 5619 5617 5609 5605 5598 5598 5596 5591
5606 5608 5612 5614 5620 5619 5618 5623 5623 5623 5627 5627 5626 5626 5626 5626 5627 5627 5627 5625 5625 5626 5623 5619 5619 5617 5617 5615 5613 5611 5611 5617 5609 5605 5593 5597 5593 5598 5596 5589 5586 5583 5578 5574 5571
5590 5595 5599 5600 5603 5604 5604 5611 5609 5608 5610 5612 5611 5612 5610 5611 5612 5612 5613 5611 5610 5607 5607 5603 5601 5601 5601 5598 5593 5589 5599 5595 5591 5588 5579 5576 5570 5577 5569 5566 5564 5558 5554 5554 5549
5577 5578 5580 5584 5587 5589 5593 5594 5591 5590 5592 5596 5596 5596 5593 5595 5596 5597 5596 5594 5594 5593 5591 5589 5585 5580 5579 5581 5573 5571 5584 5573 5569 5572 5565 5555 5554 5551 5547 5541 5539 5534 5529 5523 5519